| time (UTC) | temp F | wind direction | speed MPH | gust MPH | rain 1hr in | rain 24hr in | rain mn in | humidity % | barometer mb |
| 20260901070027 | 71 | 0.0 | 0.0 | 0.00 | 0.00 | 0.00 | 80 | 1013.0 | |
| 20260901065049 | 71 | 0.0 | 0.0 | 0.00 | 0.00 | 0.00 | 80 | 1013.0 | |
| 20260901064027 | 71 | 0.0 | 0.0 | 0.00 | 0.00 | 0.00 | 80 | 1013.1 | |
| 20260901063210 | 72 | 0.0 | 0.0 | 0.00 | 0.00 | 0.00 | 80 | 1013.0 | |
| 20260901062520 | 72 | 0.0 | 0.0 | 0.00 | 0.00 | 0.00 | 80 | 1013.0 | |
| 20260901061548 | 72 | 0.0 | 0.0 | 0.00 | 0.00 | 0.00 | 80 | 1012.9 | |
| 20260901060541 | 72 | 0.0 | 0.0 | 0.00 | 0.00 | 0.00 | 80 | 1013.0 | |
| 20260901055520 | 72 | 0.0 | 0.0 | 0.00 | 0.00 | 0.00 | 80 | 1012.8 | |
| 20260901054549 | 72 | 0.0 | 0.0 | 0.00 | 0.00 | 0.00 | 81 | 1012.8 | |
| 20260901053520 | 73 | 0.0 | 0.0 | 0.00 | 0.00 | 0.00 | 80 | 1013.1 | |
| 20260901052518 | 73 | 0.0 | 0.0 | 0.00 | 0.00 | 0.00 | 81 | 1013.0 | |
| 20260901051527 | 73 | 0.0 | 0.0 | 0.00 | 0.00 | 0.00 | 81 | 1012.8 | |
| 20260901050506 | 73 | 0.0 | 0.0 | 0.00 | 0.00 | 0.00 | 81 | 1012.7 | |
| 20260901045520 | 73 | 0.0 | 0.0 | 0.00 | 0.00 | 0.00 | 82 | 1012.6 | |
| 20260901044520 | 74 | 0.0 | 0.0 | 0.00 | 0.00 | 0.00 | 82 | 1012.6 | |
| 20260901043529 | 74 | 0.0 | 0.0 | 0.00 | 0.00 | 0.00 | 82 | 1012.7 | |
| 20260901042520 | 74 | 0.0 | 0.0 | 0.00 | 0.00 | 0.00 | 83 | 1012.7 | |
| 20260901041609 | 74 | 0.0 | 0.0 | 0.00 | 0.00 | 0.00 | 83 | 1012.7 | |
| 20260901040520 | 75 | 0.0 | 0.0 | 0.00 | 0.00 | 0.00 | 84 | 1012.7 | |
| 20260901035520 | 75 | 0.0 | 0.0 | 0.00 | 0.00 | 0.00 | 84 | 1012.7 | |
| 20260901034519 | 75 | 0.0 | 0.0 | 0.00 | 0.00 | 0.00 | 84 | 1012.7 | |
| 20260901033520 | 75 | 0.0 | 0.0 | 0.00 | 0.00 | 0.00 | 85 | 1012.7 | |
| 20260901032520 | 75 | 0.0 | 0.0 | 0.00 | 0.00 | 0.00 | 85 | 1012.5 | |
| 20260901031520 | 76 | 0.0 | 0.0 | 0.00 | 0.00 | 0.00 | 85 | 1012.6 | |
| 20260901030520 | 75 | 0.0 | 0.0 | 0.00 | 0.00 | 0.00 | 85 | 1012.5 | |
| 20260901025519 | 75 | 0.0 | 0.0 | 0.00 | 0.00 | 0.00 | 85 | 1012.5 | |
| 20260901024537 | 75 | 0.0 | 0.0 | 0.00 | 0.00 | 0.00 | 86 | 1012.5 | |
| 20260901023519 | 76 | 0.0 | 0.0 | 0.00 | 0.00 | 0.00 | 87 | 1012.4 | |
| 20260901022528 | 76 | 0.0 | 0.0 | 0.00 | 0.00 | 0.00 | 87 | 1012.4 | |
| 20260901021545 | 76 | 0.0 | 0.0 | 0.00 | 0.00 | 0.00 | 88 | 1012.4 | |
| 20260901020537 | 77 | 0.0 | 0.0 | 0.00 | 0.00 | 0.00 | 88 | 1012.4 | |
| 20260901015540 | 77 | 0.0 | 0.0 | 0.00 | 0.00 | 0.00 | 88 | 1012.4 | |
| 20260901014520 | 78 | 0.0 | 0.0 | 0.00 | 0.00 | 0.00 | 88 | 1012.1 | |
| 20260901013528 | 78 | 0.0 | 0.0 | 0.00 | 0.00 | 0.00 | 88 | 1011.9 | |
| 20260901012528 | 79 | 0.0 | 0.0 | 0.00 | 0.00 | 0.00 | 88 | 1011.9 | |
| 20260901011519 | 79 | 0.0 | 0.0 | 0.00 | 0.00 | 0.00 | 87 | 1011.9 | |
| 20260901010519 | 80 | 0.0 | 0.0 | 0.00 | 0.00 | 0.00 | 86 | 1011.6 | |
| 20260901005519 | 81 | 0.0 | 0.0 | 0.00 | 0.00 | 0.00 | 84 | 1011.7 | |
| 20260901004536 | 81 | 0.0 | 0.0 | 0.00 | 0.00 | 0.00 | 83 | 1011.6 | |
| 20260901003520 | 82 | 0.0 | 0.0 | 0.00 | 0.00 | 0.00 | 81 | 1011.5 | |
| 20260901002520 | 83 | 0.0 | 0.0 | 0.00 | 0.00 | 0.00 | 80 | 1011.5 | |
| 20260901001546 | 83 | 0.0 | 1.0 | 0.00 | 0.00 | 0.00 | 79 | 1011.4 | |
| 20260901000540 | 84 | 0.0 | 2.0 | 0.00 | 0.00 | 0.00 | 78 | 1011.2 | |
| 20260831235519 | 85 | 0.0 | 1.0 | 0.00 | 0.00 | 0.00 | 76 | 1011.1 | |
| 20260831234519 | 85 | 0.0 | 1.0 | 0.00 | 0.00 | 0.00 | 75 | 1011.0 | |
| 20260831233520 | 86 | 0.0 | 4.0 | 0.00 | 0.00 | 0.00 | 74 | 1011.0 | |
| 20260831232537 | 86 | 0.0 | 1.0 | 0.00 | 0.00 | 0.00 | 73 | 1011.1 | |
| 20260831231545 | 86 | 0.0 | 0.0 | 0.00 | 0.00 | 0.00 | 73 | 1011.1 | |
| 20260831230520 | 86 | 0.0 | 2.0 | 0.00 | 0.00 | 0.00 | 72 | 1010.9 | |
| 20260831225521 | 87 | 0.0 | 3.0 | 0.00 | 0.00 | 0.00 | 71 | 1010.8 | |
| 20260831224519 | 87 | 0.0 | 2.0 | 0.00 | 0.00 | 0.00 | 71 | 1010.8 | |
| 20260831223536 | 86 | 0.0 | 2.0 | 0.00 | 0.00 | 0.00 | 71 | 1010.8 | |
| 20260831222520 | 86 | 0.0 | 0.0 | 0.00 | 0.00 | 0.00 | 73 | 1010.7 | |
| 20260831221520 | 86 | 0.0 | 0.0 | 0.00 | 0.00 | 0.00 | 74 | 1010.7 | |
| 20260831220528 | 85 | 0.0 | 0.0 | 0.00 | 0.00 | 0.00 | 76 | 1010.5 | |
| 20260831215519 | 85 | 0.0 | 0.0 | 0.00 | 0.00 | 0.00 | 76 | 1010.6 | |
| 20260831214519 | 85 | 0.0 | 0.0 | 0.00 | 0.00 | 0.00 | 73 | 1010.6 | |
| 20260831213528 | 86 | 0.0 | 0.0 | 0.00 | 0.00 | 0.00 | 74 | 1010.5 | |
| 20260831212545 | 86 | 0.0 | 0.0 | 0.00 | 0.00 | 0.00 | 73 | 1010.6 | |
| 20260831211519 | 86 | 0.0 | 0.0 | 0.00 | 0.00 | 0.00 | 71 | 1010.5 | |
| 20260831210536 | 87 | 0.0 | 1.0 | 0.00 | 0.00 | 0.00 | 70 | 1010.6 | |
| 20260831205528 | 87 | 0.0 | 2.0 | 0.00 | 0.00 | 0.00 | 69 | 1010.6 | |
| 20260831204519 | 88 | 0.0 | 3.0 | 0.00 | 0.00 | 0.00 | 68 | 1010.8 | |
| 20260831203539 | 88 | 0.0 | 0.0 | 0.00 | 0.00 | 0.00 | 69 | 1010.7 | |
| 20260831202520 | 89 | 0.0 | 0.0 | 0.00 | 0.00 | 0.00 | 66 | 1010.7 | |
| 20260831201519 | 89 | 0.0 | 0.0 | 0.00 | 0.00 | 0.00 | 65 | 1010.7 | |
| 20260831200519 | 90 | 0.0 | 1.0 | 0.00 | 0.00 | 0.00 | 63 | 1010.5 | |
| 20260831195519 | 91 | 0.0 | 3.0 | 0.00 | 0.00 | 0.00 | 63 | 1010.6 | |
| 20260831194519 | 90 | 0.0 | 3.0 | 0.00 | 0.00 | 0.00 | 62 | 1010.6 | |
| 20260831193519 | 91 | 0.0 | 0.0 | 0.00 | 0.00 | 0.00 | 62 | 1010.6 | |
| 20260831192519 | 91 | 0.0 | 2.0 | 0.00 | 0.00 | 0.00 | 61 | 1010.9 | |
| 20260831191527 | 91 | 0.0 | 2.0 | 0.00 | 0.00 | 0.00 | 65 | 1010.9 | |
| 20260831190801 | 92 | 0.0 | 2.0 | 0.00 | 0.00 | 0.00 | 61 | 1010.9 | |
| 20260831190019 | 92 | 0.0 | 3.0 | 0.00 | 0.00 | 0.00 | 61 | 1010.7 | |
| 20260831185019 | 91 | 0.0 | 1.0 | 0.00 | 0.00 | 0.00 | 64 | 1011.0 | |
| 20260831184019 | 90 | 158 | 1.0 | 4.0 | 0.00 | 0.00 | 0.00 | 64 | 1011.0 |
| 20260831183019 | 90 | 0.0 | 3.0 | 0.00 | 0.00 | 0.00 | 69 | 1011.0 | |
| 20260831182019 | 89 | 0.0 | 2.0 | 0.00 | 0.00 | 0.00 | 65 | 1011.1 | |
| 20260831181019 | 88 | 0.0 | 2.0 | 0.00 | 0.00 | 0.00 | 67 | 1011.3 | |
| 20260831180027 | 87 | 0.0 | 1.0 | 0.00 | 0.00 | 0.00 | 69 | 1011.2 | |
| 20260831175019 | 87 | 0.0 | 0.0 | 0.00 | 0.00 | 0.00 | 69 | 1011.2 | |
| 20260831174019 | 86 | 0.0 | 1.0 | 0.00 | 0.00 | 0.00 | 70 | 1011.3 | |
| 20260831173019 | 86 | 0.0 | 1.0 | 0.00 | 0.00 | 0.00 | 69 | 1011.4 | |
| 20260831172019 | 86 | 0.0 | 0.0 | 0.00 | 0.00 | 0.00 | 70 | 1011.5 | |
| 20260831171028 | 86 | 0.0 | 2.0 | 0.00 | 0.00 | 0.00 | 70 | 1011.3 | |
| 20260831170028 | 86 | 0.0 | 1.0 | 0.00 | 0.00 | 0.00 | 69 | 1011.4 | |
| 20260831165019 | 85 | 0.0 | 0.0 | 0.00 | 0.00 | 0.00 | 70 | 1011.4 | |
| 20260831164019 | 85 | 0.0 | 0.0 | 0.00 | 0.00 | 0.00 | 70 | 1011.5 | |
| 20260831163019 | 85 | 0.0 | 0.0 | 0.00 | 0.00 | 0.00 | 72 | 1011.5 | |
| 20260831162019 | 85 | 0.0 | 1.0 | 0.00 | 0.00 | 0.00 | 71 | 1011.3 | |
| 20260831161019 | 84 | 0.0 | 0.0 | 0.00 | 0.00 | 0.00 | 72 | 1011.3 | |
| 20260831160027 | 84 | 0.0 | 2.0 | 0.00 | 0.00 | 0.00 | 71 | 1011.4 | |
| 20260831155019 | 84 | 0.0 | 1.0 | 0.00 | 0.00 | 0.00 | 71 | 1011.4 | |
| 20260831154019 | 83 | 0.0 | 0.0 | 0.00 | 0.00 | 0.00 | 73 | 1011.3 | |
| 20260831153019 | 83 | 0.0 | 2.0 | 0.00 | 0.00 | 0.00 | 71 | 1011.1 | |
| 20260831152018 | 82 | 0.0 | 1.0 | 0.00 | 0.00 | 0.00 | 72 | 1011.0 | |
| 20260831151019 | 82 | 0.0 | 2.0 | 0.00 | 0.00 | 0.00 | 74 | 1011.0 | |
| 20260831150019 | 81 | 0.0 | 1.0 | 0.00 | 0.00 | 0.00 | 75 | 1010.9 | |
| 20260831145019 | 80 | 0.0 | 0.0 | 0.00 | 0.00 | 0.00 | 79 | 1010.9 | |
| 20260831144019 | 78 | 0.0 | 2.0 | 0.00 | 0.00 | 0.00 | 79 | 1010.8 | |
| 20260831143019 | 77 | 0.0 | 1.0 | 0.00 | 0.00 | 0.00 | 82 | 1010.7 | |
| 20260831142019 | 76 | 0.0 | 1.0 | 0.00 | 0.00 | 0.00 | 82 | 1010.7 | |
| 20260831141019 | 76 | 0.0 | 1.0 | 0.00 | 0.00 | 0.00 | 82 | 1010.8 | |
| 20260831140036 | 76 | 0.0 | 1.0 | 0.00 | 0.00 | 0.00 | 83 | 1011.0 | |
| 20260831135039 | 75 | 0.0 | 2.0 | 0.00 | 0.00 | 0.00 | 83 | 1010.7 | |
| 20260831134108 | 75 | 0.0 | 0.0 | 0.00 | 0.00 | 0.00 | 84 | 1010.6 | |
| 20260831133019 | 74 | 0.0 | 0.0 | 0.00 | 0.00 | 0.00 | 86 | 1010.7 | |
| 20260831132019 | 73 | 0.0 | 0.0 | 0.00 | 0.00 | 0.00 | 87 | 1010.5 | |
| 20260831131018 | 72 | 0.0 | 0.0 | 0.00 | 0.00 | 0.00 | 88 | 1010.4 | |
| 20260831130019 | 71 | 0.0 | 0.0 | 0.00 | 0.00 | 0.00 | 89 | 1010.5 | |
| 20260831125019 | 70 | 0.0 | 0.0 | 0.00 | 0.00 | 0.00 | 88 | 1010.4 | |
| 20260831124018 | 69 | 0.0 | 0.0 | 0.00 | 0.00 | 0.00 | 88 | 1010.5 | |
| 20260831123019 | 69 | 0.0 | 0.0 | 0.00 | 0.00 | 0.00 | 87 | 1010.3 | |
| 20260831122018 | 68 | 0.0 | 0.0 | 0.00 | 0.00 | 0.00 | 86 | 1010.3 | |
| 20260831121039 | 68 | 0.0 | 0.0 | 0.00 | 0.00 | 0.00 | 84 | 1010.3 | |
| 20260831120048 | 67 | 0.0 | 0.0 | 0.00 | 0.00 | 0.00 | 85 | 1010.2 | |
| 20260831115039 | 67 | 0.0 | 1.0 | 0.00 | 0.00 | 0.00 | 85 | 1010.0 | |
| 20260831114039 | 67 | 0.0 | 0.0 | 0.00 | 0.00 | 0.00 | 85 | 1010.1 | |
| 20260831113045 | 67 | 0.0 | 0.0 | 0.00 | 0.00 | 0.00 | 86 | 1010.2 | |
| 20260831112157 | 67 | 0.0 | 0.0 | 0.00 | 0.00 | 0.00 | 86 | 1010.2 | |
| 20260831111539 | 68 | 0.0 | 0.0 | 0.00 | 0.00 | 0.00 | 87 | 1010.2 | |
| 20260831110519 | 68 | 0.0 | 0.0 | 0.00 | 0.00 | 0.00 | 87 | 1010.1 | |
| 20260831105535 | 68 | 0.0 | 0.0 | 0.00 | 0.00 | 0.00 | 88 | 1010.2 | |
| 20260831104607 | 68 | 0.0 | 0.0 | 0.00 | 0.00 | 0.00 | 88 | 1010.3 | |
| 20260831103527 | 69 | 0.0 | 0.0 | 0.00 | 0.00 | 0.00 | 89 | 1010.3 | |
| 20260831102527 | 69 | 0.0 | 0.0 | 0.00 | 0.00 | 0.00 | 89 | 1010.3 | |
| 20260831101536 | 69 | 0.0 | 0.0 | 0.00 | 0.00 | 0.00 | 89 | 1010.4 | |
| 20260831100519 | 69 | 0.0 | 0.0 | 0.00 | 0.00 | 0.00 | 89 | 1010.5 | |
| 20260831095536 | 69 | 0.0 | 0.0 | 0.00 | 0.00 | 0.00 | 89 | 1010.5 | |
| 20260831094519 | 70 | 0.0 | 0.0 | 0.00 | 0.00 | 0.00 | 89 | 1010.8 | |
| 20260831093518 | 70 | 0.0 | 0.0 | 0.00 | 0.00 | 0.00 | 89 | 1010.9 | |
| 20260831092518 | 71 | 0.0 | 0.0 | 0.00 | 0.00 | 0.00 | 88 | 1011.0 | |
| 20260831091518 | 71 | 0.0 | 0.0 | 0.00 | 0.00 | 0.00 | 88 | 1011.0 | |
| 20260831090519 | 71 | 0.0 | 0.0 | 0.00 | 0.00 | 0.00 | 87 | 1011.0 | |
| 20260831085519 | 71 | 0.0 | 0.0 | 0.00 | 0.00 | 0.00 | 87 | 1011.0 | |
| 20260831084536 | 72 | 0.0 | 0.0 | 0.00 | 0.00 | 0.00 | 86 | 1011.0 | |
| 20260831083539 | 72 | 0.0 | 0.0 | 0.00 | 0.00 | 0.00 | 85 | 1011.0 | |
| 20260831082518 | 72 | 0.0 | 0.0 | 0.00 | 0.00 | 0.00 | 85 | 1010.9 | |
| 20260831081518 | 73 | 0.0 | 0.0 | 0.00 | 0.00 | 0.00 | 85 | 1011.1 | |
| 20260831080518 | 73 | 0.0 | 0.0 | 0.00 | 0.00 | 0.00 | 85 | 1011.2 | |
| 20260831075518 | 73 | 0.0 | 0.0 | 0.00 | 0.00 | 0.00 | 85 | 1011.1 | |
| 20260831074519 | 72 | 0.0 | 0.0 | 0.00 | 0.00 | 0.00 | 87 | 1011.0 | |
| 20260831073527 | 71 | 0.0 | 0.0 | 0.00 | 0.00 | 0.00 | 88 | 1011.1 | |
| 20260831072520 | 71 | 0.0 | 1.0 | 0.00 | 0.00 | 0.00 | 89 | 1011.1 | |
| 20260831071518 | 71 | 0.0 | 0.0 | 0.00 | 0.00 | 0.00 | 89 | 1011.2 | |
| 20260831070527 | 71 | 0.0 | 0.0 | 0.00 | 0.00 | 0.00 | 89 | 1011.2 |